MMS 1

Last updated on Mon Sep 21 2026 00:02:52 GMT+0000 (Coordinated Universal Time)

1 40482U 15011A 26263.66668981 -.00001945 00000+0 00000+0 0 9993 2 40482 72.9000 347.7256 8257419 169.3943 318.8237 0.28195128 1394
UTC large
Height (km)
Speed (km/s)
/
Latitude / Longitude
Inclination (degrees)
Orbital Period (minutes)
Azimuth
Elevation
Range (km)
Doppler Factor

Next 0 passes for location: London (51.5072 / 0.1276)

No passes found over London.
MMS 1